Tiempo cada hora Dabrowa

Hoy, 4 Agosto, Miércoles

Tiempo Temperatura Precipitaciones Viento Presión Humedad
00:00 +16°C° 0.3 mm 1 mps 740 mmHg 79%
01:00 +16°C° 0.3 mm 1 mps 740 mmHg 83%
02:00 +16°C° 0.2 mm 1 mps 740 mmHg 84%
03:00 +16°C° 0.2 mm 2 mps 740 mmHg 84%
04:00 +16°C° 0.2 mm 2 mps 740 mmHg 84%
05:00 +16°C° 0.1 mm 2 mps 740 mmHg 85%
06:00 +16°C° 0.1 mm 2 mps 740 mmHg 86%
07:00 +16°C° 0.1 mm 1 mps 740 mmHg 86%
08:00 +16°C° 0.4 mm 2 mps 740 mmHg 88%
09:00 +16°C° 0.4 mm 2 mps 741 mmHg 89%
10:00 +16°C° 0.4 mm 2 mps 741 mmHg 91%
11:00 +16°C° 0.2 mm 2 mps 741 mmHg 89%
12:00 +16°C° 0.2 mm 2 mps 741 mmHg 86%
13:00 +17°C° 0.2 mm 2 mps 741 mmHg 84%
14:00 +18°C° 0 mm 2 mps 740 mmHg 78%
15:00 +19°C° 0 mm 2 mps 740 mmHg 72%
16:00 +20°C° 0 mm 2 mps 740 mmHg 66%
17:00 +19°C° 0 mm 2 mps 740 mmHg 69%
18:00 +19°C° 0 mm 2 mps 740 mmHg 72%
19:00 +18°C° 0 mm 2 mps 740 mmHg 75%
20:00 +17°C° 0 mm 2 mps 740 mmHg 78%
21:00 +17°C° 0 mm 2 mps 740 mmHg 81%
22:00 +16°C° 0 mm 2 mps 740 mmHg 84%
23:00 +16°C° 0 mm 2 mps 739 mmHg 86%

Mañana, 5 Agosto, Jueves

Tiempo Temperatura Precipitaciones Viento Presión Humedad
00:00 +15°C° 0 mm 2 mps 739 mmHg 88%
01:00 +15°C° 0 mm 2 mps 739 mmHg 90%
02:00 +15°C° 0 mm 2 mps 739 mmHg 91%
03:00 +15°C° 0 mm 2 mps 739 mmHg 92%
04:00 +14°C° 0 mm 2 mps 738 mmHg 93%
05:00 +15°C° 0 mm 2 mps 738 mmHg 89%
06:00 +16°C° 0 mm 3 mps 738 mmHg 85%
07:00 +17°C° 0 mm 3 mps 738 mmHg 81%
08:00 +18°C° 0 mm 3 mps 738 mmHg 76%
09:00 +19°C° 0 mm 3 mps 738 mmHg 72%
10:00 +20°C° 0 mm 3 mps 738 mmHg 68%
11:00 +19°C° 0.2 mm 3 mps 738 mmHg 73%
12:00 +18°C° 0.2 mm 3 mps 737 mmHg 78%
13:00 +18°C° 0.2 mm 3 mps 737 mmHg 82%
14:00 +17°C° 1.1 mm 3 mps 737 mmHg 86%
15:00 +17°C° 1.1 mm 3 mps 737 mmHg 90%
16:00 +16°C° 1.1 mm 3 mps 736 mmHg 94%
17:00 +16°C° 0.8 mm 3 mps 736 mmHg 94%
18:00 +16°C° 0.8 mm 3 mps 736 mmHg 94%
19:00 +15°C° 0.8 mm 4 mps 735 mmHg 94%
20:00 +15°C° 1.2 mm 4 mps 735 mmHg 95%
21:00 +15°C° 1.2 mm 4 mps 735 mmHg 95%
22:00 +15°C° 1.2 mm 4 mps 734 mmHg 96%
23:00 +15°C° 1 mm 4 mps 734 mmHg 96%

Pasado mañana, 6 Agosto, Viernes

Tiempo Temperatura Precipitaciones Viento Presión Humedad
00:00 +15°C° 1 mm 4 mps 734 mmHg 96%
01:00 +15°C° 1 mm 4 mps 734 mmHg 97%
02:00 +15°C° 0.9 mm 4 mps 733 mmHg 97%
03:00 +16°C° 0.9 mm 3 mps 733 mmHg 97%
04:00 +16°C° 0.9 mm 3 mps 733 mmHg 97%
05:00 +14°C° 1.2 mm 4 mps 733 mmHg 97%
06:00 +14°C° 1.2 mm 4 mps 733 mmHg 97%
07:00 +14°C° 1.2 mm 4 mps 733 mmHg 96%
08:00 +14°C° 0.4 mm 4 mps 734 mmHg 96%
09:00 +14°C° 0.4 mm 4 mps 734 mmHg 95%
10:00 +14°C° 0.4 mm 4 mps 735 mmHg 95%
11:00 +15°C° 0.2 mm 4 mps 735 mmHg 92%
12:00 +15°C° 0.2 mm 4 mps 735 mmHg 89%
13:00 +15°C° 0.2 mm 4 mps 735 mmHg 87%
14:00 +17°C° 0.1 mm 4 mps 735 mmHg 82%
15:00 +17°C° 0.1 mm 3 mps 736 mmHg 78%
16:00 +18°C° 0.1 mm 3 mps 736 mmHg 73%
17:00 +17°C° 0 mm 3 mps 736 mmHg 76%
18:00 +17°C° 0 mm 2 mps 736 mmHg 80%
19:00 +16°C° 0 mm 2 mps 736 mmHg 83%
20:00 +15°C° 0 mm 1 mps 736 mmHg 86%
21:00 +15°C° 0 mm 1 mps 736 mmHg 88%
22:00 +13°C° 0 mm 0 mps 737 mmHg 90%
23:00 +14°C° 0 mm 1 mps 737 mmHg 89%

7 Agosto, Sábado

Tiempo Temperatura Precipitaciones Viento Presión Humedad
00:00 +14°C° 0 mm 1 mps 737 mmHg 89%
01:00 +13°C° 0 mm 1 mps 737 mmHg 89%
02:00 +13°C° 0 mm 1 mps 737 mmHg 89%
03:00 +13°C° 0 mm 1 mps 737 mmHg 89%
04:00 +13°C° 0 mm 1 mps 737 mmHg 89%
05:00 +15°C° 0 mm 1 mps 737 mmHg 85%
06:00 +16°C° 0 mm 1 mps 737 mmHg 80%
07:00 +19°C° 0 mm 1 mps 738 mmHg 76%
08:00 +19°C° 0 mm 2 mps 738 mmHg 70%
09:00 +21°C° 0 mm 2 mps 738 mmHg 64%
10:00 +24°C° 0 mm 2 mps 738 mmHg 58%
11:00 +25°C° 0 mm 2 mps 738 mmHg 53%
12:00 +26°C° 0 mm 3 mps 738 mmHg 49%
13:00 +28°C° 0 mm 3 mps 737 mmHg 44%
14:00 +28°C° 0 mm 3 mps 737 mmHg 43%
15:00 +28°C° 0 mm 3 mps 737 mmHg 42%
16:00 +28°C° 0 mm 3 mps 737 mmHg 41%
17:00 +27°C° 0 mm 2 mps 737 mmHg 46%
18:00 +26°C° 0 mm 2 mps 737 mmHg 51%
19:00 +24°C° 0 mm 1 mps 737 mmHg 56%
20:00 +23°C° 0 mm 2 mps 737 mmHg 58%
21:00 +23°C° 0 mm 2 mps 737 mmHg 60%
22:00 +21°C° 0 mm 3 mps 737 mmHg 62%
23:00 +21°C° 0 mm 4 mps 737 mmHg 65%

8 Agosto, Domingo

Tiempo Temperatura Precipitaciones Viento Presión Humedad
00:00 +20°C° 0 mm 4 mps 737 mmHg 67%
01:00 +20°C° 0 mm 4 mps 736 mmHg 70%
02:00 +20°C° 0 mm 4 mps 736 mmHg 68%
03:00 +21°C° 0 mm 4 mps 736 mmHg 67%
04:00 +21°C° 0 mm 3 mps 736 mmHg 65%
05:00 +20°C° 0 mm 4 mps 737 mmHg 71%
06:00 +20°C° 0 mm 4 mps 738 mmHg 77%
07:00 +19°C° 0 mm 5 mps 739 mmHg 83%
08:00 +20°C° 0 mm 5 mps 739 mmHg 76%
09:00 +21°C° 0 mm 5 mps 740 mmHg 70%
10:00 +22°C° 0 mm 5 mps 740 mmHg 63%
11:00 +23°C° 0 mm 5 mps 740 mmHg 58%
12:00 +25°C° 0 mm 4 mps 741 mmHg 54%
13:00 +26°C° 0 mm 4 mps 741 mmHg 49%
14:00 +26°C° 0 mm 4 mps 741 mmHg 48%
15:00 +26°C° 0 mm 3 mps 741 mmHg 47%
16:00 +26°C° 0 mm 3 mps 742 mmHg 46%
17:00 +25°C° 0 mm 2 mps 742 mmHg 50%
18:00 +25°C° 0 mm 1 mps 742 mmHg 54%
19:00 +24°C° 0 mm 1 mps 742 mmHg 58%
20:00 +23°C° 0 mm 1 mps 743 mmHg 59%
21:00 +22°C° 0 mm 1 mps 743 mmHg 59%
22:00 +22°C° 0 mm 1 mps 743 mmHg 60%
23:00 +21°C° 0 mm 1 mps 743 mmHg 62%

9 Agosto, Lunes

Tiempo Temperatura Precipitaciones Viento Presión Humedad
00:00 +21°C° 0 mm 1 mps 744 mmHg 63%
01:00 +19°C° 0 mm 2 mps 744 mmHg 65%
02:00 +19°C° 0 mm 2 mps 744 mmHg 67%
03:00 +18°C° 0 mm 2 mps 744 mmHg 70%
04:00 +17°C° 0 mm 2 mps 744 mmHg 73%
05:00 +18°C° 0 mm 2 mps 744 mmHg 69%
06:00 +20°C° 0 mm 1 mps 745 mmHg 65%
07:00 +21°C° 0 mm 1 mps 745 mmHg 61%
08:00 +23°C° 0 mm 1 mps 745 mmHg 57%
09:00 +24°C° 0 mm 1 mps 745 mmHg 53%
10:00 +25°C° 0 mm 1 mps 745 mmHg 50%
11:00 +26°C° 0 mm 1 mps 745 mmHg 47%
12:00 +27°C° 0 mm 1 mps 745 mmHg 45%
13:00 +28°C° 0 mm 2 mps 744 mmHg 42%
14:00 +28°C° 0 mm 2 mps 744 mmHg 40%
15:00 +28°C° 0 mm 2 mps 744 mmHg 39%
16:00 +28°C° 0 mm 2 mps 744 mmHg 37%
17:00 +27°C° 0 mm 2 mps 744 mmHg 42%
18:00 +25°C° 0 mm 2 mps 744 mmHg 46%
19:00 +24°C° 0 mm 1 mps 743 mmHg 51%
20:00 +23°C° 0 mm 1 mps 743 mmHg 53%
21:00 +22°C° 0 mm 1 mps 743 mmHg 55%
22:00 +22°C° 0 mm 1 mps 743 mmHg 56%
23:00 +21°C° 0 mm 1 mps 743 mmHg 58%
Mostrar más

Necesitamos Su Consentimiento

Meteoprog y nuestros Proveedores de Servicios pueden almacenar y acceder a sus datos personales como cookies, identificadores de dispositivo u otras tecnologías similares de su dispositivo y procesar dichos datos para personalizar contenido y anuncios, además de ofrecer funciones de redes sociales y analizar el tráfico.

  • Almacenar y/o acceder a información en su dispositivo

    Se puede almacenar o acceder a cookies, identificadores de dispositivo u otra información de su dispositivo para los fines anteriormente indicados.

  • Anuncios y contenido personalizados, medición de anuncios y contenido, percepciones del público, y desarrollo de productos

    Los anuncios y el contenido pueden personalizarse en base a su perfil. Se pueden añadir más datos para personalizar mejor los anuncios y contenidos. Se puede medir el rendimiento de los anuncios y contenidos. Se puede obtener la percepción sobre el público que ha visto los anuncios y contenidos. Dichos datos pueden usarse para desarrollar o mejorar la experiencia del usuario, sistemas y software.

Al hacer clic en ‘Estoy De Acuerdo’ usted permitirá el uso de las cookies, identificadores de dispositivo, balizas web u otras tecnologías similares indicadas. Su configuración puede cambiarse desde el navegador de su dispositivo.

Para ciertos fines, los intereses legítimos pueden ser considerados por encima del consentimiento. Puede leer más sobre ello en nuestra Política de Privacidad y Cookies.